Regional Weather Roundup
Issued by NWS

Home | Current Version | Previous Version | Graphics & Text | Print | Product List | Glossary On
Versions: 1 2 3 4 5 6 7 8 9 10 11 12 13 14 15 16 17 18 19 20 21 22 23 24 25 26 27 28 29 30 31 32 33 34 35 36 37 38 39 40 41 42 43 44 45 46 47 48 49 50
000
ASUS43 KMKX 211810
RWRWI

WISCONSIN REGIONAL WEATHER ROUNDUP
NATIONAL WEATHER SERVICE MILWAUKEE/SULLIVAN WI
1200 PM CST SAT JAN 21 2017

NOTE: "FAIR" INDICATES FEW OR NO CLOUDS BELOW 12,000 FEET WITH NO
SIGNIFICANT WEATHER AND/OR OBSTRUCTIONS TO VISIBILITY.

WIZ001-002-006>008-014>016-023>028-211900-
NORTHWEST WISCONSIN

CITY           SKY/WX    TMP DP  RH WIND       PRES   REMARKS
SUPERIOR ARPT  DRIZZLE   35  35 100 NE8       29.48F WCI  28
6HR MIN TEMP:  33; 6HR MAX TEMP:  35;

ASHLAND        CLOUDY    36  34  92 NE6       29.48F WCI  31
6HR MIN TEMP:  34; 6HR MAX TEMP:  36; 6HR PCP:  0.01;

HAYWARD        LGT RAIN  38  35  89 E7        29.43F WCI  33
6HR MIN TEMP:  34; 6HR MAX TEMP:  38; 6HR PCP: TRACE;

SIREN          CLOUDY    36  36  99 NE5       29.43F FOG     WCI  32
6HR MIN TEMP:  34; 6HR MAX TEMP:  36; 6HR PCP:  0.03;

CUMBERLAND     CLOUDY    34  34 100 E5        29.41F WCI  30
RICE LAKE      CLOUDY    37  36  97 E6        29.43F WCI  32
6HR MIN TEMP:  34; 6HR MAX TEMP:  37; 6HR PCP:  0.01;

CHETEK         CLOUDY    36  36  99 E3        29.41F FOG
6HR MIN TEMP:  33; 6HR MAX TEMP:  36; 6HR PCP:  0.03;

LADYSMITH      LGT RAIN  37  37  99 E6        29.44F WCI  32
6HR MIN TEMP:  35; 6HR MAX TEMP:  37; 6HR PCP:  0.24;

EAU CLAIRE     CLOUDY    36  35  96 E7        29.41F WCI  30
6HR MIN TEMP:  34; 6HR MAX TEMP:  36; 6HR PCP:  0.05;

MENOMONIE        N/A    N/A N/A N/A MISG        N/A
NEW RICHMOND   CLOUDY    35  35 100 E3        29.41F FOG
6HR MIN TEMP:  34; 6HR MAX TEMP:  36; 6HR PCP:  0.02;

OSCEOLA        LGT RAIN  37  37 100 CALM      29.44F
6HR MIN TEMP:  35; 6HR MAX TEMP:  37; 6HR PCP:  0.03;

$$

WIZ003>005-009-010-017-018-211900-
NORTH CENTRAL WISCONSIN

CITY           SKY/WX    TMP DP  RH WIND       PRES   REMARKS
MANITOWISH WTR CLOUDY    34  34 100 E6        29.45F WCI  29
6HR MIN TEMP:  32; 6HR MAX TEMP:  34; 6HR PCP:  0.03;

ARBOR VITAE    CLOUDY    37  36  96 SE9       29.45F FOG     WCI  30
6HR MIN TEMP:  34; 6HR MAX TEMP:  37; 6HR PCP:  0.01;

WOODRUFF       CLOUDY    37  36  96 SE9       29.45F FOG     WCI  30
6HR MIN TEMP:  34; 6HR MAX TEMP:  37; 6HR PCP:  0.01;

RHINELANDER    FOG       36  36 100 E12       29.45F VSB 1/4 WCI  28
6HR MIN TEMP:  34; 6HR MAX TEMP:  36; 6HR PCP:  0.01;

EAGLE RIVER    CLOUDY    35  35 100 E6        29.46F FOG     WCI  29
6HR MIN TEMP:  32; 6HR MAX TEMP:  35;

LAND O LAKES   CLOUDY    35  34  98 E6        29.48F WCI  30
6HR MIN TEMP:  33; 6HR MAX TEMP:  35; 6HR PCP:  0.01;

PHILLIPS       CLOUDY    35  35 100 SE5       29.44F WCI  31
6HR MIN TEMP:  32; 6HR MAX TEMP:  35; 6HR PCP:  0.09;

TOMAHAWK       DRZL/FOG  36  35  96 E3        29.45F VSB 1
6HR MIN TEMP:  32; 6HR MAX TEMP:  36;

MEDFORD        LGT RAIN  35  34  99 E7        29.41F WCI  29
6HR MIN TEMP:  32; 6HR MAX TEMP:  35; 6HR PCP:  0.10;

MERRILL        DRZL/FOG  36  36 100 SE6         N/A  VSB 1/2 WCI  31
6HR MIN TEMP:  33; 6HR MAX TEMP:  36;

$$

WIZ029-030-035-036-043>047-211900-
CENTRAL WISCONSIN

CITY           SKY/WX    TMP DP  RH WIND       PRES   REMARKS
WAUSAU         FOG       35  35 100 E10       29.42F VSB 1/2 WCI  27
6HR MIN TEMP:  33; 6HR MAX TEMP:  35; 6HR PCP: TRACE;

MOSINEE        FOG       36  36 100 E12       29.44F VSB 1/8 WCI  27
MARSHFIELD     FOG       35  35 100 E9        29.41F VSB 1/4 WCI  28
6HR MIN TEMP:  33; 6HR MAX TEMP:  35; 6HR PCP:  0.01;

STEVENS POINT  RAIN      33  33 100 E12       29.44F VSB 1/4 WCI  25
6HR MIN TEMP:  32; 6HR MAX TEMP:  34;

WAUPACA        FOG       38  38  97 CALM      29.47F VSB 1/4
6HR MIN TEMP:  36; 6HR MAX TEMP:  38;

WAUTOMA        FOG       37  37 100 NE3       29.45F VSB 1/4
6HR MIN TEMP:  34; 6HR MAX TEMP:  37;

WISC RAPIDS    FOG       37  37 100 E6        29.44F VSB 1/4 WCI  32
6HR MIN TEMP:  34; 6HR MAX TEMP:  37; 6HR PCP: TRACE;

CAMP DOUGLAS   FOG       37  37 100 CALM      29.42F VSB 1/4
                                      6HR PCP: TRACE;

$$

WIZ011>013-019>022-031-037>040-048>050-211900-
NORTHEAST WISCONSIN

CITY           SKY/WX    TMP DP  RH WIND       PRES   REMARKS
ANTIGO         FOG       33  33 100 E8        29.47S VSB 1/4 WCI  26
6HR MIN TEMP:  32; 6HR MAX TEMP:  33;

SHAWANO        FOG       36  35  96 NE6       29.49F VSB 1/4 WCI  31
6HR MIN TEMP:  35; 6HR MAX TEMP:  37;

OCONTO         CLOUDY    36  35  99 E6        29.50F VSB 1/4 WCI  31
6HR MIN TEMP:  33; 6HR MAX TEMP:  36; 6HR PCP:  0.01;

STURGEON BAY   LGT RAIN  39  38  96 E7        29.51F VSB 1/4 WCI  34
6HR MIN TEMP:  35; 6HR MAX TEMP:  39; 6HR PCP: TRACE;

GREEN BAY      FOG       37  37 100 NE5       29.49F VSB 1/4 WCI  33
6HR MIN TEMP:  36; 6HR MAX TEMP:  37;

MANITOWOC      FOG       39  38  96 MISG      29.48F VSB<1/4
6HR MIN TEMP:  36; 6HR MAX TEMP:  40; 6HR PCP: TRACE;

APPLETON       FOG       37  37 100 E7        29.86R VSB 1/8 WCI  32
CLINTONVILLE   FOG       36  36 100 NE5       29.48F VSB 1/4 WCI  32
OSHKOSH        FOG       37  36  96 NE3       29.44F VSB 1/4
6HR MIN TEMP:  35; 6HR MAX TEMP:  37;

$$

WIZ032>034-041-042-053>061-211900-
SOUTHWEST WISCONSIN

CITY           SKY/WX    TMP DP  RH WIND       PRES   REMARKS
LA CROSSE      CLOUDY    40  37  89 SE7       29.41F FOG
6HR MIN TEMP:  39; 6HR MAX TEMP:  41; 6HR PCP:  0.06;

SPARTA         CLOUDY    37  37 100 CALM      29.43F FOG
6HR MIN TEMP:  33; 6HR MAX TEMP:  37; 6HR PCP:  0.02;

VIROQUA        CLOUDY    38  38 100 SE7       29.41F VSB<1/4 WCI  33
6HR MIN TEMP:  35; 6HR MAX TEMP:  38;

BOSCOBEL       FOG       41  40  96 CALM      29.43F VSB 1/4
6HR MIN TEMP:  37; 6HR MAX TEMP:  41;

PRAIRIE DU CHI FOG       40  39  97 CALM      29.43S VSB 1
6HR MIN TEMP:  35; 6HR MAX TEMP:  40; 6HR PCP:  0.01;

PLATTEVILLE    CLOUDY    43  43 100 SW6       29.43F VSB<1/4
6HR MIN TEMP:  38; 6HR MAX TEMP:  43;

$$

WIZ056-057-062-063-064-067-068-211900-
SOUTH CENTRAL WISCONSIN

CITY           SKY/WX    TMP DP  RH WIND       PRES   REMARKS
REEDSBURG      FOG       38  38 100 CALM      29.42F VSB 1/2
6HR MIN TEMP:  34; 6HR MAX TEMP:  38;

BARABOO/DELLS  FOG       38  38  99 E3        29.41F VSB<1/4
6HR MIN TEMP:  34; 6HR MAX TEMP:  39;

LONE ROCK      FOG       41  40  96 CALM      29.43F VSB 1/4
6HR MIN TEMP:  37; 6HR MAX TEMP:  41;

MINERAL POINT  FOG       45  45 100 S5        29.42S VSB<1/4
MADISON        FOG       45  45 100 S5        29.43F VSB 1
6HR MIN TEMP:  38; 6HR MAX TEMP:  45; 6HR PCP: TRACE;

MIDDLETON      CLOUDY    46  46 100 S5        29.42F
6HR MIN TEMP:  37; 6HR MAX TEMP:  46;

WATERTOWN      CLOUDY    46  46 100 S10       29.44F
6HR MIN TEMP:  37; 6HR MAX TEMP:  46;

MONROE         CLOUDY    45  45 100 SW15      29.42F FOG
JANESVILLE     PTSUNNY   50  50 100 S9        29.43F
$$

WIZ051-052-058>065-066-070>072-211900-
SOUTHEAST WISCONSIN

CITY           SKY/WX    TMP DP  RH WIND       PRES   REMARKS
MILWAUKEE      CLOUDY    49  45  86 SE7       29.47F FOG
6HR MIN TEMP:  40; 6HR MAX TEMP:  50;

WAUKESHA       CLOUDY    45  45 100 SE7       29.46F FOG
MILWAUKEE/TIMM CLOUDY    48  46  93 S7        29.48F FOG
RACINE         FOG       44  43  96 S9        29.48F VSB<1/4
6HR MIN TEMP:  41; 6HR MAX TEMP:  45;

KENOSHA        MOSUNNY   50  48  93 SE6       29.46F FOG
6HR MIN TEMP:  42; 6HR MAX TEMP:  51;

FOND DU LAC    CLOUDY    42  39  89 SE5       29.44F FOG
6HR MIN TEMP:  37; 6HR MAX TEMP:  42;

SHEBOYGAN      FOG       42  40  92 SE6       29.47F VSB<1/4
6HR MIN TEMP:  35; 6HR MAX TEMP:  42; 6HR PCP: TRACE;

WEST BEND      CLOUDY    45  45 100 SE6       29.45F FOG
JUNEAU         CLOUDY    44  44 100 SE7       29.45F FOG
6HR MIN TEMP:  37; 6HR MAX TEMP:  44;

$$

LSZ147-162-211900-
LAKE SUPERIOR

STATION/POSITION TIME  TEMP    WIND        PRES    WAVE
                       AIR SEA DIR/SP/G            HT/PER
                 (UTC) (F)     (DEG/KT/KT) (MB)    (FT/S)
DEVILS ISLAND    1700   35      60/  6/  6 1000.4F
PORT WING        1740   33      30/ 11/ 11  999.0F
SAXON HARBOR     1730   34      50/  5/  7  999.0F
$$

LMZ867-665-643>646-211900-
LAKE MICHIGAN

STATION/POSITION TIME  TEMP    WIND        PRES    WAVE
                       AIR SEA DIR/SP/G            HT/PER
                 (UTC) (F)     (DEG/KT/KT) (MB)    (FT/S)
NORTHPORT PIER   1801   35      70/  6/  8 1000.3
SISTER BAY       1750   38     110/  8/ 11   N/A
KEWAUNEE LAKE



USA.gov is the U.S. government's official web portal to all federal, state and local government web resources and services.